Regional Weather Roundup
Issued by NWS

Home | Current Version | Previous Version | Graphics & Text | Print | Product List | Glossary Off
Versions: 1 2 3 4 5 6 7 8 9 10 11 12 13 14 15 16 17 18 19 20 21 22 23 24 25 26 27 28 29 30 31 32 33 34 35 36 37 38 39 40 41 42 43 44 45 46 47 48 49 50

000
ASUS43 KTOP 301908
RWRKS

WEATHER ROUNDUP FOR KANSAS
NATIONAL WEATHER SERVICE GOODLAND KS
200 PM CDT THU OCT 30 2014

NOTE:  "FAIR" INDICATES FEW OR NO CLOUDS BELOW 12,000 FEET WITH NO
SIGNIFICANT WEATHER AND/OR OBSTRUCTIONS TO VISIBILITY.

KSZ001>006-013>018-027>032-041>047-302000-
NORTHWEST KANSAS

CITY           SKY/WX    TMP DP  RH WIND       PRES   REMARKS
GOODLAND       SUNNY     63  28  26 N16G22    30.31F
HAYS           SUNNY     68  34  28 NW18G25   30.21F
HILL CITY      SUNNY     68  31  25 NW20G29   30.23F
RUSSELL        SUNNY     68  35  29 NW16G26   30.18F
$$

KSZ061>065-074>080-084>089-302000-
SOUTHWEST KANSAS

CITY           SKY/WX    TMP DP  RH WIND       PRES   REMARKS
DODGE CITY     SUNNY     69  30  23 NW16G24   30.24F
ELKHART          N/A     67  31  26 N7          N/A
GARDEN CITY    SUNNY     67  28  23 N16       30.27F
GREAT BEND     SUNNY     68  36  30 N22G29    30.20F
LIBERAL        SUNNY     70  34  26 N18G24    30.28F
PRATT          SUNNY     70  34  26 N14       30.20F
$$

KSZ066>073-081>083-090>101-302000-
SOUTHEAST KANSAS

CITY           SKY/WX    TMP DP  RH WIND       PRES   REMARKS
CHANUTE        SUNNY     71  38  29 NW20G30   30.05F
COFFEYVILLE    LGT RAIN  72  40  31 NW18G25   30.05F
HUTCHINSON     SUNNY     72  36  26 N23G29    30.15F
MEDICINE LODGE   N/A     73  36  25 N16G26    30.17F
NEWTON         SUNNY     68  37  32 N20       30.15F
PARSONS        SUNNY     73  39  29 NW18G30   30.06F
WICHITA INTL   MOSUNNY   73  36  25 NW24G30   30.13F
WICHITA JABRA  SUNNY     70  37  29 N24G31    30.12F
WICHITA MCCONL SUNNY     71  35  26 N17G26    30.12F
WINFIELD       SUNNY     73  40  30 N17G30    30.12F
$$

KSZ007>012-019>026-033>040-048>060-102>105-302000-
NORTHEAST KANSAS

CITY           SKY/WX    TMP DP  RH WIND       PRES   REMARKS
CONCORDIA      SUNNY     68  36  30 N24G30    30.12F
EMPORIA        SUNNY     69  35  28 NW26G33   30.08S
LAWRENCE       SUNNY     69  40  34 NW24G31   30.03S
MANHATTAN      SUNNY     70  37  29 NW13G24   30.09F
MARYSVILLE     SUNNY     66  41  39 NW21      30.08F
OLATHE IND     SUNNY     67  38  34 N20G28    30.02F
OLATHE EXE     SUNNY     68  38  33 N16G24    30.01S
SALINA         SUNNY     72  35  25 NW20      30.13F
TOPEKA BILLARD SUNNY     70  40  33 N15       30.05F
TOPEKA FORBES  SUNNY     68  40  35 NW17G26   30.04F
$$



USA.gov is the U.S. government's official web portal to all federal, state and local government web resources and services.